FREGAT DEB, 46101

Orbit data source: Space-Track

FREGAT DEB, 46101 is space debris in LEO originally from a launch on Mon, 18 Jul 2011 UTC launched from the Tyuratam Missile And Space Complex (TTMTR). Debris objects in space refer to the collection of defunct objects orbiting the Earth. Examples of debris include non-operational satellites, rocket bodies, and fragments generated from explosions, collisions, or faulty payload assembly.

Loading next visibility...
Identifier
46101, 2011-037JL
Orbit
LEO
Country
Flag of CISCIS
Related business
Manufacturer
Lavochkin
Mission
Spacecraft
Bus & Motor
Unknown
Mass
Unknown
Launch date (UTC)
2011-07-18 (14 years ago)
Launch vehicle
Unknown
Launch site
Tyuratam Missile And Space Complex (TTMTR)
Object type
Payload
Rocket body
Debris
Shape & HBR
Unknown shape, 0.1 m
Radar Cross Section
Small (<0.1 m²)

Expand to show TLE details & history
Last TLE update: 3 days ago

TLE from 3 days ago
0 FREGAT DEB
1 46101U 11037JL  25288.77055558  .00045523  00000-0  41704-1 0  9997
2 46101  51.1841  59.8820 0718492 102.2324 265.9901 13.02643611 96870
Epoch: 2025-10-15T18:29Z
TLE epoch observation values (Epoch: 2025-10-15T18:29:36.002Z)
Latitude
0.00001°
Longitude
117.94214°
Altitude
1,329.481 km
Speed
7.157 km/s
True Right ascension
03h 59m 31s
True Declination
0° 00' 00"
Sunlit
Object was in full shadow at epoch
Visualization orbit readout
Latitude
Unknown
Longitude
Unknown
Altitude
Unknown
Speed
Unknown
Apparent Right ascension
Unknown
Apparent Declination
Unknown
Sunlit
N/A
Visualization observer readout
Local Sidereal Time
13:26:26
Azimuth
Unknown
Elevation
Unknown
Doppler factor
Unknown
Orbital elements
Apogee altitude
1,800.513 km
Perigee altitude
704.035 km
Semi-major axis
7,630.411 km
Eccentricity
0.07185
Inclination
51.1841°
RAAN
59.882°
Arg. of periapsis
102.2324°
True anomaly
257.8556°
Mean anomaly
265.9901°
Eccentric anomaly
261.91437°
Mean motion
3.25628 °/min
Orbital period
110.56 mins
BSTAR
0.041704
Loading maneuver chart data...
Computing Atmospheric mass density...
Loading historical data...
Loading historical data...
Loading historical data...
Loading historical data...
Loading historical data...
Loading historical data...
Loading historical data...

Documentation

Showing up to 5 results
|